Location: Gull Harbor
(47.1000°N, 122.9000°W)
Time: 22:38:44
(UTC-07:00)

OTV 5 (USA 277) - Visible Passes

Search period start: 22 April 2018 00:00
Search period end: 02 May 2018 00:00
Orbit: 310 x 323 km, 54.5° (Epoch: 21 April)

Date Brightness Start Highest point End Pass type
(mag) Time Alt. Az. Time Alt. Az. Time Alt. Az.
22 Apr ? 21:12:17 10° W 21:14:45 30° NNW 21:17:14 10° NE visible
22 Apr ? 22:47:47 10° NW 22:49:40 17° N 22:50:03 16° N visible
23 Apr ? 21:27:13 10° WNW 21:29:24 21° NNW 21:31:34 10° NE visible
23 Apr ? 23:02:24 10° NW 23:04:01 17° N 23:04:01 17° N visible
24 Apr ? 21:42:09 10° NW 21:44:06 17° N 21:46:02 10° NE visible
24 Apr ? 23:16:50 10° NW 23:17:54 17° NNW 23:17:54 17° NNW visible
25 Apr ? 21:56:55 10° NW 21:58:50 17° N 22:00:43 10° NE visible
25 Apr ? 23:31:10 10° NW 23:31:44 14° NW 23:31:44 14° NW visible
26 Apr ? 22:11:26 10° NW 22:13:32 19° N 22:14:41 15° NE visible
26 Apr ? 23:45:31 10° NW 23:45:32 10° NW 23:45:32 10° NW visible
27 Apr ? 20:51:20 10° NW 20:53:15 17° N 20:55:09 10° NE visible
27 Apr ? 22:25:48 10° NW 22:28:11 27° NNE 22:28:28 26° NNE visible
28 Apr ? 21:05:59 10° NW 21:07:58 18° N 21:09:57 10° NE visible
28 Apr ? 22:40:07 10° NW 22:42:15 39° N 22:42:15 39° N visible
29 Apr ? 21:20:25 10° NW 21:22:40 22° NNE 21:24:53 10° ENE visible
29 Apr ? 22:54:31 10° WNW 22:56:03 30° WNW 22:56:03 30° WNW visible
30 Apr ? 21:34:45 10° NW 21:37:17 34° NNE 21:39:00 16° E visible
30 Apr ? 23:09:07 10° WNW 23:09:52 16° W 23:09:52 16° W visible
01 May ? 21:49:06 10° NW 21:51:48 68° NNE 21:52:50 32° ESE visible
